Regional Weather Roundup
Issued by NWS

Home | Current Version | Previous Version | Graphics & Text | Print | Product List | Glossary On
Versions: 1 2 3 4 5 6 7 8 9 10 11 12 13 14 15 16 17 18 19 20 21 22 23 24 25 26 27 28 29 30 31 32 33 34 35 36 37 38 39 40 41 42 43 44 45 46 47 48 49 50
000
ASUS45 KABQ 200701
RWRNM
NEW MEXICO REGIONAL WEATHER ROUNDUP
NATIONAL WEATHER SERVICE ALBUQUERQUE NM
100 AM MDT SUN AUG 20 2017

NOTE: "FAIR" MEANS FEW OR NO CLOUDS BELOW 12,000 FEET AGL WITH NO
       SIGNIFICANT WEATHER OR OBSTRUCTIONS TO VISION.

      THIS PRODUCT IS RELEASED AS TWO VERSIONS.  ONE VERSION NEAR
      THE TOP OF THE HOUR CONTAINING PRELIMINARY DATA FROM ALBUQUERQUE
      AND OTHER STATIONS.  A FINAL VERSION WITH ADDITIONAL DATA IS
      ISSUED ABOUT 10 MINUTES AFTER THE HOUR.

NMZ501-503-504-510>518-200800-
NORTHWEST PLATEAU/NORTHCENTRAL MOUNTAINS

CITY           SKY/WX    TMP DP  RH WIND       PRES   REMARKS
FARMINGTON     FAIR      72  42  34 E13       30.09S
LOS ALAMOS     FAIR      63  44  50 S9        30.31S
SANTA FE       FAIR      65  47  52 SE8       30.24F
TAOS           FAIR      58  43  57 N5        30.32R
ANGEL FIRE     FAIR      49  45  85 CALM      30.39S

$$
NMZ402-403-502-505>509-200800-
WESTCENTRAL MOUNTAINS/SOUTHWEST MOUNTAINS

CITY           SKY/WX    TMP DP  RH WIND       PRES   REMARKS
GALLUP         FAIR      72  37  28 S10       30.21R
GRANTS         FAIR      70  45  40 S6        30.24S
SILVER CITY    FAIR      64  58  80 SE9       30.25F

$$
NMZ407-409-411-412-200800-
SOUTHERN DESERTS

CITY           SKY/WX    TMP DP  RH WIND       PRES   REMARKS
DEMING         LGT RAIN  63  59  87 E9        30.18F
LAS CRUCES     LGT RAIN  64  61  91 NW9       30.17S
HOLLOMAN AFB   FAIR      71  57  61 CALM      30.11F
ALAMOGORDO     MOCLDY    72  55  56 N5        30.12F
T OR C         FAIR      71  55  56 S14       30.19R

$$
NMZ519>523-200800-
CENTRAL VALLEYS/CENTRAL HIGHLANDS

CITY           SKY/WX    TMP DP  RH WIND       PRES   REMARKS
ALBUQUERQUE    CLOUDY    72  46  39 E8        30.18R
CLINES CORNERS FAIR      61  48  62 SW6       30.30F
BELEN          NOT AVBL
SOCORRO        NOT AVBL

$$
NMZ524>526-539-540-200800-
SOUTHCENTRAL MOUNTAINS

CITY           SKY/WX    TMP DP  RH WIND       PRES   REMARKS
RUIDOSO        NOT AVBL

$$
NMZ527>531-200800-
NORTHEAST HIGHLANDS/NORTHEAST PLAINS

CITY           SKY/WX    TMP DP  RH WIND       PRES   REMARKS
LAS VEGAS      FAIR      60  48  64 SW13      30.27F
RATON          FAIR      58  51  78 N6        30.20F
CLAYTON        FAIR      65  54  67 W10       30.10S

$$
NMZ532>537-200800-
EASTCENTRAL PLAINS

CITY           SKY/WX    TMP DP  RH WIND       PRES   REMARKS
SANTA ROSA     FAIR      67  52  57 CALM      30.12S
TUCUMCARI      FAIR      72  55  55 W6        30.05S
CANNON AFB     CLOUDY    70  66  88 S7        30.10F
CLOVIS AIRPORT FAIR      70  61  73 SE12      30.11S

$$
NMZ028-029-538-200800-
SOUTHEAST PLAINS

CITY           SKY/WX    TMP DP  RH WIND       PRES   REMARKS
ROSWELL        MOCLDY    77  60  55 SE10      30.05F
ARTESIA        MOCLDY    77  64  65 SE13      30.07S
CARLSBAD       FAIR      72  69  90 S8        30.04F
HOBBS          CLOUDY    73  63  68 SW6       30.08S


$$




USA.gov is the U.S. government's official web portal to all federal, state and local government web resources and services.